owner,sensor,date,latitude,longitude,vertical_datum,wind_speed,wind_to_direction,wind_speed_of_gust,qcFlag 
TABS,ioos:station:wmo:42045:1,2019-05-15T16:00:00Z,26.2168,-96.4998,4.0,4.71,35.2,5.89,'11111222,11111222,11111222' 
TABS,ioos:station:wmo:42045:1,2019-05-15T17:00:00Z,26.2168,-96.4998,4.0,4.75,43.0,6.0,'11111222,11111222,11111222' 
TABS,ioos:station:wmo:42045:1,2019-05-15T18:00:00Z,26.2168,-96.4998,4.0,4.08,40.4,5.24,'11111222,11111222,11111222' 
TABS,ioos:station:wmo:42045:1,2019-05-15T18:30:00Z,26.2168,-96.4998,4.0,4.44,45.7,5.41,'11111222,11111222,11111222' 
TABS,ioos:station:wmo:42045:1,2019-05-15T19:30:00Z,26.2168,-96.4998,4.0,5.38,63.5,6.17,'11111222,11111222,11111222' 
TABS,ioos:station:wmo:42045:1,2019-05-15T20:30:00Z,26.2168,-96.4998,4.0,5.57,67.9,6.56,'11111222,11111222,11111222' 
TABS,ioos:station:wmo:42045:1,2019-05-15T22:00:00Z,26.2168,-96.4998,4.0,6.15,79.1,6.94,'11111222,11111222,11111222' 
TABS,ioos:station:wmo:42045:1,2019-05-15T23:00:00Z,26.2168,-96.4998,4.0,6.55,79.8,7.43,'11111222,11111222,11111222' 
TABS,ioos:station:wmo:42045:1,2019-05-15T23:30:00Z,26.2168,-96.4998,4.0,6.7,85.8,7.6,'11111222,11111222,11111222' 
TABS,ioos:station:wmo:42045:1,2019-05-16T03:30:00Z,26.2168,-96.4998,4.0,7.1,106.9,8.49,'11111222,11111222,11111222' 
TABS,ioos:station:wmo:42045:1,2019-05-16T05:00:00Z,26.2168,-96.4998,4.0,6.77,103.8,7.78,'11111222,11111222,11111222' 
TABS,ioos:station:wmo:42045:1,2019-05-16T06:00:00Z,26.2168,-96.4998,4.0,6.07,99.1,7.08,'11111222,11111222,11111222' 
TABS,ioos:station:wmo:42045:1,2019-05-16T07:00:00Z,26.2168,-96.4998,4.0,4.68,107.7,5.48,'11111222,11111222,11111222' 
TABS,ioos:station:wmo:42045:1,2019-05-16T10:00:00Z,26.2168,-96.4998,4.0,1.41,43.8,1.75,'11111222,11111222,11111222' 
TABS,ioos:station:wmo:42045:1,2019-05-16T12:00:00Z,26.2168,-96.4998,4.0,2.52,82.5,3.01,'11111222,11111222,11111222' 
TABS,ioos:station:wmo:42045:1,2019-05-16T13:00:00Z,26.2168,-96.4998,4.0,1.87,96.7,2.24,'11111222,11111222,11111222' 
TABS,ioos:station:wmo:42045:1,2019-05-16T13:30:00Z,26.2168,-96.4998,4.0,2.14,104.8,2.62,'11111222,11111222,11111222' 
TABS,ioos:station:wmo:42045:1,2019-05-16T14:30:00Z,26.2168,-96.4998,4.0,2.0,79.6,2.42,'11111222,11111222,11111222' 
TABS,ioos:station:wmo:42045:1,2019-05-16T17:00:00Z,26.2168,-96.4998,4.0,2.98,63.8,3.61,'11111222,11111222,11111222' 
TABS,ioos:station:wmo:42045:1,2019-05-16T18:30:00Z,26.2168,-96.4998,4.0,3.72,66.5,4.72,'11111222,11111222,11111222' 
TABS,ioos:station:wmo:42045:1,2019-05-16T20:00:00Z,26.2168,-96.4998,4.0,4.98,61.8,6.12,'11111222,11111222,11111222' 
TABS,ioos:station:wmo:42045:1,2019-05-16T21:00:00Z,26.2168,-96.4998,4.0,5.59,76.7,6.72,'11111222,11111222,11111222' 
TABS,ioos:station:wmo:42045:1,2019-05-16T22:00:00Z,26.2168,-96.4998,4.0,6.24,88.4,7.51,'11111222,11111222,11111222' 
TABS,ioos:station:wmo:42045:1,2019-05-16T23:00:00Z,26.2168,-96.4998,4.0,7.07,99.8,8.45,'11111222,11111222,11111222' 
TABS,ioos:station:wmo:42045:1,2019-05-16T23:30:00Z,26.2168,-96.4998,4.0,7.01,102.5,8.49,'11111222,11111222,11111222' 
TABS,ioos:station:wmo:42045:1,2019-05-17T03:30:00Z,26.2168,-96.4998,4.0,5.99,120.6,7.02,'11111222,11111222,11111222' 
TABS,ioos:station:wmo:42045:1,2019-05-17T07:00:00Z,26.2168,-96.4998,4.0,6.56,141.3,7.67,'11111222,11111222,11111222' 
TABS,ioos:station:wmo:42045:1,2019-05-17T08:30:00Z,26.2168,-96.4998,4.0,5.39,139.2,6.39,'11111222,11111222,11111222' 
TABS,ioos:station:wmo:42045:1,2019-05-17T10:00:00Z,26.2168,-96.4998,4.0,5.06,139.2,5.98,'11111222,11111222,11111222' 
TABS,ioos:station:wmo:42045:1,2019-05-17T11:00:00Z,26.2168,-96.4998,4.0,5.28,137.5,5.83,'11111222,11111222,11111222' 
TABS,ioos:station:wmo:42045:1,2019-05-17T12:00:00Z,26.2168,-96.4998,4.0,5.52,133.3,6.29,'11111222,11111222,11111222' 
TABS,ioos:station:wmo:42045:1,2019-05-17T13:00:00Z,26.2168,-96.4998,4.0,6.32,133.0,7.15,'11111222,11111222,11111222' 
TABS,ioos:station:wmo:42045:1,2019-05-17T14:00:00Z,26.2168,-96.4998,4.0,6.58,132.3,8.22,'11111222,11111222,11111222' 
TABS,ioos:station:wmo:42045:1,2019-05-17T15:30:00Z,26.2168,-96.4998,4.0,6.43,128.4,7.94,'11111222,11111222,11111222' 
TABS,ioos:station:wmo:42045:1,2019-05-17T17:00:00Z,26.2168,-96.4998,4.0,6.58,124.4,7.83,'11111222,11111222,11111222' 
TABS,ioos:station:wmo:42045:1,2019-05-17T17:30:00Z,26.2168,-96.4998,4.0,6.36,130.8,7.78,'11111222,11111222,11111222' 
TABS,ioos:station:wmo:42045:1,2019-05-17T19:00:00Z,26.2168,-96.4998,4.0,6.16,138.1,7.78,'11111222,11111222,11111222' 
TABS,ioos:station:wmo:42045:1,2019-05-17T21:30:00Z,26.2168,-96.4998,4.0,6.09,128.0,7.4,'11111222,11111222,11111222' 
TABS,ioos:station:wmo:42045:1,2019-05-17T22:30:00Z,26.2168,-96.4998,4.0,6.17,121.1,7.47,'11111222,11111222,11111222' 
TABS,ioos:station:wmo:42045:1,2019-05-17T23:30:00Z,26.2168,-96.4998,4.0,6.86,123.6,8.12,'11111222,11111222,11111222' 
TABS,ioos:station:wmo:42045:1,2019-05-18T03:00:00Z,26.2168,-96.4998,4.0,7.62,136.7,8.8,'11111222,11111222,11111222' 
TABS,ioos:station:wmo:42045:1,2019-05-18T04:30:00Z,26.2168,-96.4998,4.0,8.04,139.6,9.41,'11111222,11111222,11111222' 
TABS,ioos:station:wmo:42045:1,2019-05-18T05:30:00Z,26.2168,-96.4998,4.0,7.43,144.3,9.15,'11111222,11111222,11111222' 
TABS,ioos:station:wmo:42045:1,2019-05-18T06:30:00Z,26.2168,-96.4998,4.0,7.84,144.4,9.44,'11111222,11111222,11111222' 
TABS,ioos:station:wmo:42045:1,2019-05-18T08:00:00Z,26.2168,-96.4998,4.0,7.86,146.8,9.43,'11111222,11111222,11111222' 
TABS,ioos:station:wmo:42045:1,2019-05-18T09:00:00Z,26.2168,-96.4998,4.0,7.15,150.2,8.34,'11111222,11111222,11111222' 
TABS,ioos:station:wmo:42045:1,2019-05-18T10:30:00Z,26.2168,-96.4998,4.0,7.02,148.2,8.11,'11111222,11111222,11111222' 
TABS,ioos:station:wmo:42045:1,2019-05-18T11:30:00Z,26.2168,-96.4998,4.0,8.57,147.7,10.16,'11111222,11111222,11111222' 
TABS,ioos:station:wmo:42045:1,2019-05-18T12:30:00Z,26.2168,-96.4998,4.0,9.42,142.9,11.32,'11111222,11111222,11111222' 
TABS,ioos:station:wmo:42045:1,2019-05-18T13:30:00Z,26.2168,-96.4998,4.0,9.38,145.5,11.16,'11111222,11111222,11111222' 
TABS,ioos:station:wmo:42045:1,2019-05-18T15:30:00Z,26.2168,-96.4998,4.0,9.19,141.8,11.06,'11111222,11111222,11111222' 
TABS,ioos:station:wmo:42045:1,2019-05-18T16:30:00Z,26.2168,-96.4998,4.0,8.35,140.4,9.72,'11111222,11111222,11111222' 
TABS,ioos:station:wmo:42045:1,2019-05-18T17:30:00Z,26.2168,-96.4998,4.0,7.22,136.1,8.46,'11111222,11111222,11111222' 
TABS,ioos:station:wmo:42045:1,2019-05-18T19:00:00Z,26.2168,-96.4998,4.0,8.33,137.9,9.71,'11111222,11111222,11111222' 
TABS,ioos:station:wmo:42045:1,2019-05-18T21:00:00Z,26.2168,-96.4998,4.0,7.21,133.9,8.66,'11111222,11111222,11111222' 
TABS,ioos:station:wmo:42045:1,2019-05-18T22:00:00Z,26.2168,-96.4998,4.0,8.48,132.2,9.47,'11111222,11111222,11111222' 
TABS,ioos:station:wmo:42045:1,2019-05-18T23:30:00Z,26.2168,-96.4998,4.0,8.2,137.1,9.6,'11111222,11111222,11111222' 
TABS,ioos:station:wmo:42045:1,2019-05-19T03:00:00Z,26.2168,-96.4998,4.0,8.23,137.0,9.65,'11111222,11111222,11111222' 
TABS,ioos:station:wmo:42045:1,2019-05-19T04:30:00Z,26.2168,-96.4998,4.0,7.98,142.9,9.68,'11111222,11111222,11111222' 
TABS,ioos:station:wmo:42045:1,2019-05-19T05:30:00Z,26.2168,-96.4998,4.0,6.97,151.2,8.46,'11111222,11111222,11111222' 
TABS,ioos:station:wmo:42045:1,2019-05-19T06:30:00Z,26.2168,-96.4998,4.0,7.51,148.9,8.75,'11111222,11111222,11111222' 
TABS,ioos:station:wmo:42045:1,2019-05-19T07:30:00Z,26.2168,-96.4998,4.0,6.28,148.1,7.49,'11111222,11111222,11111222' 
TABS,ioos:station:wmo:42045:1,2019-05-19T09:00:00Z,26.2168,-96.4998,4.0,4.66,143.9,5.61,'11111222,11111222,11111222' 
TABS,ioos:station:wmo:42045:1,2019-05-19T10:00:00Z,26.2168,-96.4998,4.0,6.53,136.9,7.89,'11111222,11111222,11111222' 
TABS,ioos:station:wmo:42045:1,2019-05-19T12:30:00Z,26.2168,-96.4998,4.0,7.3,131.0,8.53,'11111222,11111222,11111222' 
TABS,ioos:station:wmo:42045:1,2019-05-19T14:00:00Z,26.2168,-96.4998,4.0,6.68,138.3,7.95,'11111222,11111222,11111222' 
TABS,ioos:station:wmo:42045:1,2019-05-19T15:00:00Z,26.2168,-96.4998,4.0,6.2,134.2,7.4,'11111222,11111222,11111222' 
TABS,ioos:station:wmo:42045:1,2019-05-19T15:30:00Z,26.2168,-96.4998,4.0,5.42,127.7,6.35,'11111222,11111222,11111222' 
TABS,ioos:station:wmo:42045:1,2019-05-19T17:00:00Z,26.2168,-96.4998,4.0,4.52,130.0,5.34,'11111222,11111222,11111222' 
TABS,ioos:station:wmo:42045:1,2019-05-19T18:30:00Z,26.2168,-96.4998,4.0,4.57,110.1,5.42,'11111222,11111222,11111222' 
TABS,ioos:station:wmo:42045:1,2019-05-19T21:00:00Z,26.2168,-96.4998,4.0,4.51,139.1,5.64,'11111222,11111222,11111222' 
TABS,ioos:station:wmo:42045:1,2019-05-19T22:00:00Z,26.2168,-96.4998,4.0,3.2,117.6,3.9,'11111222,11111222,11111222' 
TABS,ioos:station:wmo:42045:1,2019-05-19T23:00:00Z,26.2168,-96.4998,4.0,3.32,99.3,3.8,'11111222,11111222,11111222' 
TABS,ioos:station:wmo:42045:1,2019-05-19T23:30:00Z,26.2168,-96.4998,4.0,3.59,90.3,4.35,'11111222,11111222,11111222' 
TABS,ioos:station:wmo:42045:1,2019-05-20T04:00:00Z,26.2168,-96.4998,4.0,6.29,138.1,7.84,'11111222,11111222,11111222' 
TABS,ioos:station:wmo:42045:1,2019-05-20T05:00:00Z,26.2168,-96.4998,4.0,6.13,134.6,7.37,'11111222,11111222,11111222' 
TABS,ioos:station:wmo:42045:1,2019-05-20T06:00:00Z,26.2168,-96.4998,4.0,6.52,142.4,7.62,'11111222,11111222,11111222' 
TABS,ioos:station:wmo:42045:1,2019-05-20T07:30:00Z,26.2168,-96.4998,4.0,6.64,137.9,8.73,'11111222,11111222,11111222' 
TABS,ioos:station:wmo:42045:1,2019-05-20T08:00:00Z,26.2168,-96.4998,4.0,7.45,143.1,8.91,'11111222,11111222,11111222' 
TABS,ioos:station:wmo:42045:1,2019-05-20T10:00:00Z,26.2168,-96.4998,4.0,8.87,139.1,10.25,'11111222,11111222,11111222' 
TABS,ioos:station:wmo:42045:1,2019-05-20T11:00:00Z,26.2168,-96.4998,4.0,8.53,139.0,9.97,'11111222,11111222,11111222' 
TABS,ioos:station:wmo:42045:1,2019-05-20T12:00:00Z,26.2168,-96.4998,4.0,9.2,141.9,10.41,'11111222,11111222,11111222' 
TABS,ioos:station:wmo:42045:1,2019-05-20T13:00:00Z,26.2168,-96.4998,4.0,10.01,142.4,12.08,'11111222,11111222,11111222' 
TABS,ioos:station:wmo:42045:1,2019-05-20T14:00:00Z,26.2168,-96.4998,4.0,9.68,146.0,11.13,'11111222,11111222,11111222' 
TABS,ioos:station:wmo:42045:1,2019-05-20T16:00:00Z,26.2168,-96.4998,4.0,9.16,146.7,10.65,'11111222,11111222,11111222' 
TABS,ioos:station:wmo:42045:1,2019-05-20T17:00:00Z,26.2168,-96.4998,4.0,9.14,147.8,10.78,'11111222,11111222,11111222' 
TABS,ioos:station:wmo:42045:1,2019-05-20T21:30:00Z,26.2168,-96.4998,4.0,9.65,137.3,12.11,'11111222,11111222,11111222' 
TABS,ioos:station:wmo:42045:1,2019-05-20T22:30:00Z,26.2168,-96.4998,4.0,10.05,137.8,12.52,'11111222,11111222,11111222' 
TABS,ioos:station:wmo:42045:1,2019-05-21T04:00:00Z,26.2168,-96.4998,4.0,12.75,147.7,16.16,'11111222,11111222,11111222' 
TABS,ioos:station:wmo:42045:1,2019-05-21T04:30:00Z,26.2168,-96.4998,4.0,13.63,147.6,16.31,'11111222,11111222,11111222' 
TABS,ioos:station:wmo:42045:1,2019-05-21T08:30:00Z,26.2168,-96.4998,4.0,12.35,155.6,15.6,'11111222,11111222,11111222' 
TABS,ioos:station:wmo:42045:1,2019-05-21T09:30:00Z,26.2168,-96.4998,4.0,11.51,157.0,13.67,'11111222,11111222,11111222' 
TABS,ioos:station:wmo:42045:1,2019-05-21T10:30:00Z,26.2168,-96.4998,4.0,11.47,151.4,13.22,'11111222,11111222,11111222' 
TABS,ioos:station:wmo:42045:1,2019-05-21T11:30:00Z,26.2168,-96.4998,4.0,11.41,149.2,14.32,'11111222,11111222,11111222' 
TABS,ioos:station:wmo:42045:1,2019-05-21T12:30:00Z,26.2168,-96.4998,4.0,10.32,147.9,12.15,'11111222,11111222,11111222' 
TABS,ioos:station:wmo:42045:1,2019-05-21T15:00:00Z,26.2168,-96.4998,4.0,10.7,146.2,13.53,'11111222,11111222,11111222' 
TABS,ioos:station:wmo:42045:1,2019-05-21T16:00:00Z,26.2168,-96.4998,4.0,8.99,143.5,10.81,'11111222,11111222,11111222' 
TABS,ioos:station:wmo:42045:1,2019-05-21T16:30:00Z,26.2168,-96.4998,4.0,9.28,148.4,11.25,'11111222,11111222,11111222' 
TABS,ioos:station:wmo:42045:1,2019-05-21T18:00:00Z,26.2168,-96.4998,4.0,7.9,146.4,9.88,'11111222,11111222,11111222' 
TABS,ioos:station:wmo:42045:1,2019-05-21T19:30:00Z,26.2168,-96.4998,4.0,6.16,142.3,7.09,'11111222,11111222,11111222' 
TABS,ioos:station:wmo:42045:1,2019-05-21T21:00:00Z,26.2168,-96.4998,4.0,4.77,137.9,5.84,'11111222,11111222,11111222' 
TABS,ioos:station:wmo:42045:1,2019-05-21T22:30:00Z,26.2168,-96.4998,4.0,3.36,120.5,4.24,'11111222,11111222,11111222' 
TABS,ioos:station:wmo:42045:1,2019-05-21T23:30:00Z,26.2168,-96.4998,4.0,5.14,125.2,6.04,'11111222,11111222,11111222' 
TABS,ioos:station:wmo:42045:1,2019-05-22T02:00:00Z,26.2168,-96.4998,4.0,7.15,139.7,8.75,'11111222,11111222,11111222' 
TABS,ioos:station:wmo:42045:1,2019-05-22T04:30:00Z,26.2168,-96.4998,4.0,7.43,144.3,9.11,'11111222,11111222,11111222' 
TABS,ioos:station:wmo:42045:1,2019-05-22T05:30:00Z,26.2168,-96.4998,4.0,7.46,147.1,9.05,'11111222,11111222,11111222' 
TABS,ioos:station:wmo:42045:1,2019-05-22T07:00:00Z,26.2168,-96.4998,4.0,8.24,148.5,9.91,'11111222,11111222,11111222' 
TABS,ioos:station:wmo:42045:1,2019-05-22T08:30:00Z,26.2168,-96.4998,4.0,7.61,143.4,9.0,'11111222,11111222,11111222' 
TABS,ioos:station:wmo:42045:1,2019-05-22T09:30:00Z,26.2168,-96.4998,4.0,7.81,146.5,9.12,'11111222,11111222,11111222' 
TABS,ioos:station:wmo:42045:1,2019-05-22T10:30:00Z,26.2168,-96.4998,4.0,8.76,143.1,10.08,'11111222,11111222,11111222' 
TABS,ioos:station:wmo:42045:1,2019-05-22T12:00:00Z,26.2168,-96.4998,4.0,8.59,142.0,10.8,'11111222,11111222,11111222' 
TABS,ioos:station:wmo:42045:1,2019-05-22T13:00:00Z,26.2168,-96.4998,4.0,7.37,159.0,9.06,'11111222,11111222,11111222' 
TABS,ioos:station:wmo:42045:1,2019-05-22T15:30:00Z,26.2168,-96.4998,4.0,7.94,126.8,9.33,'11111222,11111222,11111222' 
TABS,ioos:station:wmo:42045:1,2019-05-22T16:30:00Z,26.2168,-96.4998,4.0,7.76,126.7,9.04,'11111222,11111222,11111222' 
TABS,ioos:station:wmo:42045:1,2019-05-22T19:00:00Z,26.2168,-96.4998,4.0,7.96,123.2,9.34,'11111222,11111222,11111222' 
TABS,ioos:station:wmo:42045:1,2019-05-22T20:00:00Z,26.2168,-96.4998,4.0,9.24,121.2,10.76,'11111222,11111222,11111222' 
TABS,ioos:station:wmo:42045:1,2019-05-22T21:00:00Z,26.2168,-96.4998,4.0,9.46,124.3,12.01,'11111222,11111222,11111222' 
TABS,ioos:station:wmo:42045:1,2019-05-22T22:00:00Z,26.2168,-96.4998,4.0,8.97,131.4,11.2,'11111222,11111222,11111222' 
TABS,ioos:station:wmo:42045:1,2019-05-22T23:00:00Z,26.2168,-96.4998,4.0,9.01,129.0,11.86,'11111222,11111222,11111222' 
TABS,ioos:station:wmo:42045:1,2019-05-22T23:30:00Z,26.2168,-96.4998,4.0,9.03,130.9,11.02,'11111222,11111222,11111222' 
TABS,ioos:station:wmo:42045:1,2019-05-23T04:00:00Z,26.2168,-96.4998,4.0,10.38,135.3,12.73,'11111222,11111222,11111222' 
TABS,ioos:station:wmo:42045:1,2019-05-23T06:30:00Z,26.2168,-96.4998,4.0,8.94,142.3,11.12,'11111222,11111222,11111222' 
TABS,ioos:station:wmo:42045:1,2019-05-23T09:00:00Z,26.2168,-96.4998,4.0,9.66,142.6,11.43,'11111222,11111222,11111222' 
TABS,ioos:station:wmo:42045:1,2019-05-23T10:00:00Z,26.2168,-96.4998,4.0,9.43,140.3,11.06,'11111222,11111222,11111222' 
TABS,ioos:station:wmo:42045:1,2019-05-23T11:30:00Z,26.2168,-96.4998,4.0,9.37,135.0,10.87,'11111222,11111222,11111222' 
TABS,ioos:station:wmo:42045:1,2019-05-23T12:30:00Z,26.2168,-96.4998,4.0,8.02,136.8,10.32,'11111222,11111222,11111222' 
TABS,ioos:station:wmo:42045:1,2019-05-23T13:30:00Z,26.2168,-96.4998,4.0,7.08,137.7,8.33,'11111222,11111222,11111222' 
TABS,ioos:station:wmo:42045:1,2019-05-23T15:00:00Z,26.2168,-96.4998,4.0,6.32,133.9,7.38,'11111222,11111222,11111222' 
TABS,ioos:station:wmo:42045:1,2019-05-23T17:30:00Z,26.2168,-96.4998,4.0,6.98,131.0,8.11,'11111222,11111222,11111222' 
TABS,ioos:station:wmo:42045:1,2019-05-23T18:30:00Z,26.2168,-96.4998,4.0,7.22,127.3,8.57,'11111222,11111222,11111222' 
TABS,ioos:station:wmo:42045:1,2019-05-23T19:30:00Z,26.2168,-96.4998,4.0,7.56,123.6,8.9,'11111222,11111222,11111222' 
TABS,ioos:station:wmo:42045:1,2019-05-23T21:00:00Z,26.2168,-96.4998,4.0,8.46,125.1,10.31,'11111222,11111222,11111222' 
TABS,ioos:station:wmo:42045:1,2019-05-23T22:00:00Z,26.2168,-96.4998,4.0,8.35,126.0,9.59,'11111222,11111222,11111222' 
TABS,ioos:station:wmo:42045:1,2019-05-23T23:30:00Z,26.2168,-96.4998,4.0,8.46,125.6,10.46,'11111222,11111222,11111222' 
TABS,ioos:station:wmo:42045:1,2019-05-24T04:00:00Z,26.2168,-96.4998,4.0,10.04,134.0,11.96,'11111222,11111222,11111222' 
TABS,ioos:station:wmo:42045:1,2019-05-24T05:00:00Z,26.2168,-96.4998,4.0,9.77,134.1,11.95,'11111222,11111222,11111222' 
TABS,ioos:station:wmo:42045:1,2019-05-24T08:30:00Z,26.2168,-96.4998,4.0,8.86,133.3,10.93,'11111222,11111222,11111222' 
TABS,ioos:station:wmo:42045:1,2019-05-24T10:00:00Z,26.2168,-96.4998,4.0,7.64,138.9,9.44,'11111222,11111222,11111222' 
TABS,ioos:station:wmo:42045:1,2019-05-24T15:30:00Z,26.2168,-96.4998,4.0,8.66,131.3,10.43,'11111222,11111222,11111222' 
TABS,ioos:station:wmo:42045:1,2019-05-24T16:30:00Z,26.2168,-96.4998,4.0,8.32,129.3,9.83,'11111222,11111222,11111222' 
TABS,ioos:station:wmo:42045:1,2019-05-24T18:00:00Z,26.2168,-96.4998,4.0,7.41,131.2,9.02,'11111222,11111222,11111222' 
TABS,ioos:station:wmo:42045:1,2019-05-24T20:00:00Z,26.2168,-96.4998,4.0,7.02,120.9,8.63,'11111222,11111222,11111222' 
TABS,ioos:station:wmo:42045:1,2019-05-24T21:30:00Z,26.2168,-96.4998,4.0,7.48,119.6,9.15,'11111222,11111222,11111222' 
TABS,ioos:station:wmo:42045:1,2019-05-24T22:30:00Z,26.2168,-96.4998,4.0,7.57,120.4,9.07,'11111222,11111222,11111222' 
TABS,ioos:station:wmo:42045:1,2019-05-24T23:30:00Z,26.2168,-96.4998,4.0,7.84,124.9,9.54,'11111222,11111222,11111222' 
TABS,ioos:station:wmo:42045:1,2019-05-25T02:30:00Z,26.2168,-96.4998,4.0,8.44,130.9,9.85,'11111222,11111222,11111222' 
TABS,ioos:station:wmo:42045:1,2019-05-25T11:00:00Z,26.2168,-96.4998,4.0,8.3,145.6,9.65,'11111222,11111222,11111222' 
TABS,ioos:station:wmo:42045:1,2019-05-25T12:00:00Z,26.2168,-96.4998,4.0,7.67,137.8,9.5,'11111222,11111222,11111222' 
TABS,ioos:station:wmo:42045:1,2019-05-25T13:00:00Z,26.2168,-96.4998,4.0,7.91,141.3,9.73,'11111222,11111222,11111222' 
TABS,ioos:station:wmo:42045:1,2019-05-25T14:00:00Z,26.2168,-96.4998,4.0,7.93,136.0,9.1,'11111222,11111222,11111222' 
TABS,ioos:station:wmo:42045:1,2019-05-25T14:30:00Z,26.2168,-96.4998,4.0,7.4,135.1,9.13,'11111222,11111222,11111222' 
TABS,ioos:station:wmo:42045:1,2019-05-25T15:30:00Z,26.2168,-96.4998,4.0,7.33,134.4,8.65,'11111222,11111222,11111222' 
TABS,ioos:station:wmo:42045:1,2019-05-25T18:00:00Z,26.2168,-96.4998,4.0,7.01,131.5,8.01,'11111222,11111222,11111222' 
TABS,ioos:station:wmo:42045:1,2019-05-25T19:00:00Z,26.2168,-96.4998,4.0,7.17,128.2,8.4,'11111222,11111222,11111222' 
TABS,ioos:station:wmo:42045:1,2019-05-25T20:30:00Z,26.2168,-96.4998,4.0,7.72,128.6,9.21,'11111222,11111222,11111222' 
TABS,ioos:station:wmo:42045:1,2019-05-25T21:30:00Z,26.2168,-96.4998,4.0,6.76,130.7,8.56,'11111222,11111222,11111222' 
TABS,ioos:station:wmo:42045:1,2019-05-25T23:00:00Z,26.2168,-96.4998,4.0,6.84,122.7,8.01,'11111222,11111222,11111222' 
TABS,ioos:station:wmo:42045:1,2019-05-25T23:30:00Z,26.2168,-96.4998,4.0,7.5,124.0,8.86,'11111222,11111222,11111222' 
TABS,ioos:station:wmo:42045:1,2019-05-26T04:00:00Z,26.2168,-96.4998,4.0,9.53,133.7,11.42,'11111222,11111222,11111222' 
TABS,ioos:station:wmo:42045:1,2019-05-26T06:00:00Z,26.2168,-96.4998,4.0,8.74,138.0,10.21,'11111222,11111222,11111222' 
TABS,ioos:station:wmo:42045:1,2019-05-26T08:00:00Z,26.2168,-96.4998,4.0,9.65,139.0,10.93,'11111222,11111222,11111222' 
TABS,ioos:station:wmo:42045:1,2019-05-26T09:00:00Z,26.2168,-96.4998,4.0,8.68,136.5,9.94,'11111222,11111222,11111222' 
TABS,ioos:station:wmo:42045:1,2019-05-26T10:30:00Z,26.2168,-96.4998,4.0,8.76,138.5,10.51,'11111222,11111222,11111222' 
TABS,ioos:station:wmo:42045:1,2019-05-26T11:30:00Z,26.2168,-96.4998,4.0,9.76,133.4,10.9,'11111222,11111222,11111222' 
TABS,ioos:station:wmo:42045:1,2019-05-26T13:00:00Z,26.2168,-96.4998,4.0,9.09,131.3,10.64,'11111222,11111222,11111222' 
TABS,ioos:station:wmo:42045:1,2019-05-26T14:00:00Z,26.2168,-96.4998,4.0,9.18,133.3,10.05,'11111222,11111222,11111222' 
TABS,ioos:station:wmo:42045:1,2019-05-26T15:00:00Z,26.2168,-96.4998,4.0,8.87,135.8,10.94,'11111222,11111222,11111222' 
TABS,ioos:station:wmo:42045:1,2019-05-26T15:30:00Z,26.2168,-96.4998,4.0,139.1,149.0,10.03,'11144222,11111222,11111222' 
TABS,ioos:station:wmo:42045:1,2019-05-26T16:30:00Z,26.2168,-96.4998,4.0,8.25,137.0,9.63,'11111222,11111222,11111222' 
TABS,ioos:station:wmo:42045:1,2019-05-26T17:30:00Z,26.2168,-96.4998,4.0,7.7,145.2,8.71,'11111222,11111222,11111222' 
TABS,ioos:station:wmo:42045:1,2019-05-26T19:30:00Z,26.2168,-96.4998,4.0,5.54,134.6,6.57,'11111222,11111222,11111222' 
TABS,ioos:station:wmo:42045:1,2019-05-26T21:30:00Z,26.2168,-96.4998,4.0,5.54,119.2,6.62,'11111222,11111222,11111222' 
TABS,ioos:station:wmo:42045:1,2019-05-26T22:30:00Z,26.2168,-96.4998,4.0,5.92,108.7,6.92,'11111222,11111222,11111222' 
TABS,ioos:station:wmo:42045:1,2019-05-26T23:30:00Z,26.2168,-96.4998,4.0,5.65,106.4,6.53,'11111222,11111222,11111222' 
TABS,ioos:station:wmo:42045:1,2019-05-27T04:00:00Z,26.2168,-96.4998,4.0,8.49,128.8,9.95,'11111222,11111222,11111222' 
TABS,ioos:station:wmo:42045:1,2019-05-27T05:30:00Z,26.2168,-96.4998,4.0,9.31,138.6,10.88,'11111222,11111222,11111222' 
TABS,ioos:station:wmo:42045:1,2019-05-27T07:00:00Z,26.2168,-96.4998,4.0,7.95,139.8,9.45,'11111222,11111222,11111222' 
TABS,ioos:station:wmo:42045:1,2019-05-27T08:00:00Z,26.2168,-96.4998,4.0,7.72,147.7,8.8,'11111222,11111222,11111222' 
TABS,ioos:station:wmo:42045:1,2019-05-27T09:00:00Z,26.2168,-96.4998,4.0,8.36,146.5,9.86,'11111222,11111222,11111222' 
TABS,ioos:station:wmo:42045:1,2019-05-27T10:00:00Z,26.2168,-96.4998,4.0,8.53,146.1,9.94,'11111222,11111222,11111222' 
TABS,ioos:station:wmo:42045:1,2019-05-27T12:00:00Z,26.2168,-96.4998,4.0,8.18,153.0,9.9,'11111222,11111222,11111222' 
TABS,ioos:station:wmo:42045:1,2019-05-27T13:00:00Z,26.2168,-96.4998,4.0,8.66,151.8,10.37,'11111222,11111222,11111222' 
TABS,ioos:station:wmo:42045:1,2019-05-27T15:00:00Z,26.2168,-96.4998,4.0,8.3,145.3,9.54,'11111222,11111222,11111222' 
TABS,ioos:station:wmo:42045:1,2019-05-27T16:30:00Z,26.2168,-96.4998,4.0,8.1,143.6,9.45,'11111222,11111222,11111222' 
TABS,ioos:station:wmo:42045:1,2019-05-27T19:00:00Z,26.2168,-96.4998,4.0,8.62,144.0,9.88,'11111222,11111222,11111222' 
TABS,ioos:station:wmo:42045:1,2019-05-27T20:00:00Z,26.2168,-96.4998,4.0,8.44,142.9,9.5,'11111222,11111222,11111222' 
TABS,ioos:station:wmo:42045:1,2019-05-27T21:00:00Z,26.2168,-96.4998,4.0,7.85,141.6,8.87,'11111222,11111222,11111222' 
TABS,ioos:station:wmo:42045:1,2019-05-27T22:00:00Z,26.2168,-96.4998,4.0,7.62,138.8,8.84,'11111222,11111222,11111222' 
TABS,ioos:station:wmo:42045:1,2019-05-27T23:00:00Z,26.2168,-96.4998,4.0,7.83,134.2,9.04,'11111222,11111222,11111222' 
TABS,ioos:station:wmo:42045:1,2019-05-27T23:30:00Z,26.2168,-96.4998,4.0,8.08,136.1,9.71,'11111222,11111222,11111222' 
TABS,ioos:station:wmo:42045:1,2019-05-28T04:00:00Z,26.2168,-96.4998,4.0,8.81,145.4,10.89,'11111222,11111222,11111222' 
TABS,ioos:station:wmo:42045:1,2019-05-28T08:00:00Z,26.2168,-96.4998,4.0,9.93,154.0,12.84,'11111222,11111222,11111222' 
TABS,ioos:station:wmo:42045:1,2019-05-28T10:30:00Z,26.2168,-96.4998,4.0,9.71,156.8,12.02,'11111222,11111222,11111222' 
TABS,ioos:station:wmo:42045:1,2019-05-28T12:30:00Z,26.2168,-96.4998,4.0,10.32,154.8,13.1,'11111222,11111222,11111222' 
TABS,ioos:station:wmo:42045:1,2019-05-28T13:30:00Z,26.2168,-96.4998,4.0,11.38,158.8,13.62,'11111222,11111222,11111222' 
TABS,ioos:station:wmo:42045:1,2019-05-28T15:00:00Z,26.2168,-96.4998,4.0,10.28,152.9,11.8,'11111222,11111222,11111222' 
TABS,ioos:station:wmo:42045:1,2019-05-28T16:30:00Z,26.2168,-96.4998,4.0,9.28,155.0,11.17,'11111222,11111222,11111222' 
TABS,ioos:station:wmo:42045:1,2019-05-28T17:30:00Z,26.2168,-96.4998,4.0,7.39,152.8,8.9,'11111222,11111222,11111222' 
TABS,ioos:station:wmo:42045:1,2019-05-28T18:30:00Z,26.2168,-96.4998,4.0,7.51,151.9,8.71,'11111222,11111222,11111222' 
TABS,ioos:station:wmo:42045:1,2019-05-28T20:00:00Z,26.2168,-96.4998,4.0,7.68,143.4,9.0,'11111222,11111222,11111222' 
TABS,ioos:station:wmo:42045:1,2019-05-28T21:00:00Z,26.2168,-96.4998,4.0,7.87,135.7,9.3,'11111222,11111222,11111222' 
TABS,ioos:station:wmo:42045:1,2019-05-28T23:00:00Z,26.2168,-96.4998,4.0,7.58,134.6,9.09,'11111222,11111222,11111222' 